logo
Search for airport 
image banner adimage banner adimage banner ad
image banner ad

LODV - Lkh Weststeiermark Standort Voitsberg Lkh

Located in District Voitsberg, Austria

ICAO - , IATA -

Data provided by Airmate  

General information

Coordinates: N47°3'8" E15°8'22"
Elevation is 1322 feet MSL.
 
View others Airports in Styria

Operational data

Special qualification required
Current time UTC:
Current local time:
Weather at : LOWG - Graz ( 24 km )
METAR: LOWG 220720Z AUTO 16005KT 130V200 CAVOK 17/13 Q1011 NOSIG
View NOTAMs / SUP AIP / TFR affecting this airport [VIEW]
Communications frequencies: [VIEW]

Runways:

Airport contact information

Address: District Voitsberg Austria

Satellite view of LODV